,

(GMT )
Al Udeid

Weather History for KQIR - October, 2013

Change the Weather History Date:

Friday, October 4, 2013

  Actual Average Record
Temperature  
Mean Temperature 92 °F -  
Max Temperature 106 °F - - ()
Min Temperature 77 °F - - ()
Cooling Degree Days 26    
Growing Degree Days 42 (Base 50)    
Moisture  
Dew Point 70 °F    
Average Humidity 76    
Maximum Humidity 100    
Minimum Humidity 8    
Precipitation  
Precipitation 0.00 in - - ()
Sea Level Pressure  
Sea Level Pressure 29.76 in    
Wind  
Wind Speed 6 mph ()    
Max Wind Speed 14 mph    
Max Gust Speed -    
Visibility 3.3 miles    
Events Fog    
T = Trace of Precipitation, MM = Missing Value Source: Averaged Metar Reports

Daily Weather History Graph

Daily Weather History Graph

Search for Another Location

Airport or City:

Trip Planner

Search our weather history database for the weather conditions in past years. The results will help you decide how hot, cold, wet, or windy it might be!

Date:

Astronomy

Oct. 04, 2013 Rise Set
Actual Time 5:28 AM AST 5:18 PM AST
Civil Twilight 5:05 AM AST 5:41 PM AST
Nautical Twilight 4:38 AM AST 6:07 PM AST
Astronomical Twilight 4:12 AM AST 6:34 PM AST
Moon 4:40 AM AST (10/4) 4:48 PM AST (10/4)
Length of Visible Light 12h 36m
Length of Day
11h 50m
Waning Crescent, 1% of the Moon is Illuminated
Oct 4
Waning Crescent
Oct 5
New
Oct 12
First Quarter
Oct 19
Full
Oct 27
Last Quarter

Hourly Weather History & Observations

Time (AST) Temp. Heat Index Dew Point Humidity Pressure Visibility Wind Dir Wind Speed Gust Speed Precip Events Conditions
12:55 AM 79.7 °F - 75.4 °F 87% 29.77 in 6.2 mi NW 5.8 mph - N/A   Clear
1:55 AM 78.4 °F - 74.8 °F 89% 29.76 in 6.2 mi NW 5.8 mph - N/A   Clear
2:51 AM 77.0 °F - 75.2 °F 94% 29.75 in 2.5 mi NW 5.8 mph - N/A   Clear
2:52 AM 77.0 °F - 75.2 °F 94% 29.75 in 1.7 mi NW 5.8 mph - N/A   Clear
2:53 AM 77.0 °F - 75.2 °F 94% 29.75 in 1.2 mi NW 5.8 mph - N/A   Clear
2:54 AM 77.0 °F - 75.2 °F 94% 29.75 in 1.0 mi NW 5.8 mph - N/A   Clear
2:55 AM 77.4 °F - 75.2 °F 93% 29.75 in 0.7 mi NW 5.8 mph - N/A   Clear
2:57 AM 77.0 °F - 75.2 °F 94% 29.75 in 0.5 mi NW 6.9 mph - N/A Fog Fog
3:00 AM 77.0 °F - 75.2 °F 94% 29.75 in 0.5 mi NW 5.8 mph - N/A Fog Fog
3:01 AM 77.0 °F - 75.2 °F 94% 29.75 in 0.5 mi NW 5.8 mph - N/A Fog Fog
3:04 AM 77.0 °F - 75.2 °F 94% 29.76 in 0.5 mi NW 5.8 mph - N/A Fog Fog
3:13 AM 77.0 °F - 75.2 °F 94% 29.75 in 0.2 mi NW 5.8 mph - N/A Fog Fog
3:16 AM 77.0 °F - 75.2 °F 94% 29.75 in 0.2 mi NW 5.8 mph - N/A Fog Fog
3:17 AM 77.0 °F - 75.2 °F 94% 29.75 in - NW 5.8 mph - N/A Fog Fog
3:18 AM 77.0 °F - 77.0 °F 100% 29.75 in - NW 4.6 mph - N/A Fog Fog
3:20 AM 77.0 °F - 77.0 °F 100% 29.75 in - NW 5.8 mph - N/A Fog Fog
3:24 AM - - - N/A% - - NW 4.6 mph - N/A   Unknown
3:39 AM - - - N/A% - - NW 3.5 mph - N/A   Unknown
3:55 AM 77.5 °F - 77.2 °F 99% 29.76 in 0.2 mi WNW 3.5 mph - N/A Fog Fog
4:37 AM 78.8 °F - - N/A% 29.77 in - NW 4.6 mph - N/A Fog Fog
4:55 AM 78.3 °F - - N/A% 29.77 in - WNW 6.9 mph - N/A Fog Fog
5:01 AM 78.8 °F - 78.8 °F 100% 29.77 in 0.2 mi WNW 5.8 mph - N/A Fog Fog
5:07 AM 78.8 °F - 78.8 °F 100% 29.77 in 0.2 mi WNW 5.8 mph - N/A Fog Fog
5:19 AM 78.8 °F - - N/A% 29.77 in - WNW 3.5 mph - N/A Fog Fog
5:21 AM 78.8 °F - - N/A% 29.77 in - WNW 4.6 mph - N/A Fog Fog
5:55 AM 77.7 °F - 77.0 °F 98% 29.78 in - WNW 3.5 mph - N/A Fog Fog
6:00 AM 77.0 °F - 77.0 °F 100% 29.78 in - NW 3.5 mph - N/A Fog Fog
6:04 AM 77.0 °F - 77.0 °F 100% 29.78 in - NW 4.6 mph - N/A Fog Fog
6:05 AM 77.0 °F - 77.0 °F 100% 29.78 in - NW 4.6 mph - N/A Fog Fog
6:06 AM 77.0 °F - 77.0 °F 100% 29.78 in 0.2 mi NW 5.8 mph - N/A Fog Fog
6:08 AM 77.0 °F - 77.0 °F 100% 29.78 in 0.2 mi NW 5.8 mph - N/A Fog Fog
6:10 AM 77.0 °F - 77.0 °F 100% 29.78 in 0.5 mi NW 5.8 mph - N/A Fog Fog
6:11 AM 77.0 °F - 77.0 °F 100% 29.78 in 0.5 mi NW 5.8 mph - N/A Fog Fog
6:13 AM 77.0 °F - 77.0 °F 100% 29.78 in 0.7 mi NW 6.9 mph - N/A   Mist
6:16 AM 78.8 °F - 78.8 °F 100% 29.78 in 1.0 mi NW 6.9 mph - N/A   Clear
6:18 AM 78.8 °F - 78.8 °F 100% 29.78 in 1.2 mi NW 8.1 mph - N/A   Clear
6:21 AM 78.8 °F - 78.8 °F 100% 29.78 in 1.7 mi NW 8.1 mph - N/A   Clear
6:23 AM 78.8 °F - 78.8 °F 100% 29.78 in - NW 8.1 mph - N/A   Clear
6:24 AM 78.8 °F - 78.8 °F 100% 29.78 in 2.5 mi NW 8.1 mph - N/A   Clear
6:26 AM 78.8 °F - 78.8 °F 100% 29.78 in 3.1 mi NW 9.2 mph - N/A   Clear
6:30 AM 78.8 °F - 78.8 °F 100% 29.78 in 3.7 mi NW 9.2 mph - N/A   Haze
7:55 AM 85.6 °F 97.7 °F 77.9 °F 78% 29.81 in 6.2 mi NW 11.5 mph - N/A   Clear
8:55 AM 89.8 °F 101.5 °F 76.1 °F 64% 29.81 in 6.2 mi NNW 6.9 mph - N/A   Clear
9:55 AM 95.4 °F 99.7 °F 67.6 °F 40% 29.80 in 6.2 mi NNW 3.5 mph - N/A   Clear
10:55 AM 99.0 °F 100.5 °F 62.4 °F 30% 29.78 in 6.2 mi WNW 3.5 mph - N/A   Clear
11:55 AM 102.6 °F 102.4 °F 58.3 °F 23% 29.75 in 6.2 mi NNW 9.2 mph - N/A   Clear
12:55 PM 104.9 °F - 47.8 °F 15% 29.72 in 6.2 mi NNE 9.2 mph - N/A   Clear
1:55 PM 106.2 °F - 44.1 °F 12% 29.70 in 6.2 mi North 12.7 mph - N/A   Clear
2:55 PM 106.2 °F - 38.7 °F 10% 29.69 in 6.2 mi NE 9.2 mph - N/A   Clear
3:55 PM 104.9 °F - 36.1 °F 9% 29.69 in 6.2 mi NE 13.8 mph - N/A   Clear
4:55 PM 102.4 °F - 31.3 °F 8% 29.70 in 6.2 mi North 13.8 mph - N/A   Clear
5:55 PM 98.8 °F - 36.3 °F 11% 29.72 in 6.2 mi North 9.2 mph - N/A   Clear
6:55 PM 94.3 °F 93.7 °F 59.0 °F 31% 29.73 in 6.2 mi North 13.8 mph - N/A   Clear
7:55 PM 90.1 °F 87.9 °F 53.4 °F 29% 29.75 in 6.2 mi NNW 10.4 mph - N/A   Clear
8:55 PM 85.6 °F 84.8 °F 58.3 °F 39% 29.75 in 6.2 mi NNW 8.1 mph - N/A   Clear
9:55 PM 83.3 °F 83.9 °F 61.5 °F 48% 29.75 in 6.2 mi NNW 8.1 mph - N/A   Clear
10:55 PM 81.7 °F 83.8 °F 66.0 °F 59% 29.74 in 6.2 mi NNW 9.2 mph - N/A   Clear
11:55 PM 80.6 °F 83.9 °F 69.8 °F 70% 29.73 in 6.2 mi NNW 8.1 mph - N/A   Clear